星链-5536 (STARLINK-5536 )

导读

STARLINK-5536是美国SpaceX公司于2023年6月22日发射的星链(Starlink)星座卫星之一,属于星链低轨互联网星座的组网卫星。该卫星运行在高度约550公里的近地轨道,主要为地面提供高速卫星互联网接入服务,能为偏远地区、海上、空中等传统网络覆盖不足区域提供低延迟宽带通信支持,是星链全球覆盖计划的重要组成部分,退役后会按计划快速离轨减少太空垃圾。

Basic Information
目录编号:
57062
目录名称:
STARLINK-5536
国际标识:
2023-088Q
轨道中心:
EARTH
卫星名称:
星链-5536
卫星全名:
星链-5536 (STARLINK-5536 )
卫星状态:
在轨 (已飞行1180 天)
发射日期:
2023-06-22 UTC
国别 :
美国 (US)
星等 :
--
This satellite is enrolled in the Space Conjunction Data Service (SCDS) and the current flight risk assessment level is: High Risk
Orbit Information
数据来源 国际轨道数据
星历时间: 2026-09-14T08:37:21+0800
18小时前
查看轨道信息
半长轴: 6861.236km
偏心率: 0.0001187
轨道倾角: 43.001°
近地点辐角 252.668°
升交点赤经 112.510°
平近点角 107.404°
近地点: 482.284km
远地点: 483.914km
周期: 94.268分钟
每日圈数: 15.275635
Detailed Information
固有亮度:
5
最大亮度:
2.4
卫星平台:
Starlink v1.5
覆盖范围:
全球
运营商:
太空探索技术公司
运营商所在国:
美国
制造商(研发单位):
太空探索技术公司
制造商所在国:
美国
使用方式:
暂无
Satellite Introduction
星链(Starlink)计划是由太空探索技术公司(SpaceX)提出的一个巨型低轨卫星互联网星座项目,计划在2019年至2024年间在太空搭建由约1.2万颗卫星组成的“星链”网络,其中1584颗将部署在地球上空550千米处的近地轨道,并从2020年开始工作。该卫星仍在工作。
2D Orbit Map
3D Orbit Map
Orbit Altitude Analysis Chart
Orbit Inclination Analysis Chart
Orbit Comprehensive Analysis Chart
View Comprehensive Chart
Conjunction Data List
Event ID Objects TCA Miss Dist (km) Collision Risk Probability Collision Risk Index (CRI) Action
CDM_260915-155705-706206-717422
2026-09-15T
15:57:19+0000
0.187 km
中距离
7.441199E-4 高风险 0.92
CDM_260915-235805-706206-698221
2026-09-15T
23:58:09+0000
0.533 km
远距离
1.036347E-4 高风险 0.75
CDM_260917-040305-706206-750321
2026-09-17T
04:03:29+0000
0.882 km
远距离
3.122166E-5 中风险 0.65
CDM_260916-051705-706206-717422
2026-09-16T
05:17:37+0000
0.955 km
远距离
2.400559E-5 中风险 0.63
CDM_260917-053705-706206-750321
2026-09-17T
05:37:38+0000
1.408 km
极远距离
6.265573E-6 低风险 0.51
CDM_260916-083505-706206-698221
2026-09-16T
08:35:59+0000
1.331 km
极远距离
5.506574E-6 低风险 0.5
CDM_260916-101005-706206-698221
2026-09-16T
10:10:09+0000
1.407 km
极远距离
4.579857E-6 低风险 0.48
CDM_260910-092505-706206-436921
2026-09-10T
09:25:02+0000
2.395 km
极远距离
1.714525E-6 低风险 0.4
CDM_260915-142305-706206-717422
2026-09-15T
14:23:10+0000
2.395 km
极远距离
1.50003E-6 低风险 0.39
CDM_260915-222305-706206-698221
2026-09-15T
22:23:59+0000
2.238 km
极远距离
1.296164E-6 低风险 0.37
Miss Distance Evolution Trend with All Objects Subscribe to Flight Safety Assessment
Collision Probability Evolution Trend with All Objects Subscribe to Flight Safety Assessment